CW4525 Weather Reports


Display with metric or nautical units.
time (UTC)temp
F
wind
direction
speed
MPH
gust
MPH
rain 1hr
in
rain 24hr
in
rain mn
in
humidity
%
barometer
mb
20260903091534 60 120 0.0 2.0 0.00 0.01 0.01 94 1011.8
20260903090028 60 120 0.0 2.0 0.00 0.01 0.01 94 1011.9
20260903084539 60 128 0.0 4.0 0.00 0.01 0.01 93 1012.1
20260903083022 60 123 0.0 0.0 0.01 0.01 0.01 93 1012.0
20260903081520 60 124 1.0 5.0 0.01 0.01 0.01 93 1012.0
20260903080021 60 144 2.0 6.0 0.01 0.01 0.01 93 1012.3
20260903074519 60 141 1.0 3.0 0.01 0.01 0.01 92 1012.4
20260903073019 61 156 2.0 7.0 0.00 0.00 0.00 92 1012.4
20260903071518 61 129 4.0 8.0 0.00 0.00 0.00 92 1012.3
20260903070024 61 121 2.0 9.0 0.00 0.00 0.00 91 1012.1
20260903064514 61 115 3.0 8.0 0.00 0.00 0.00 91 1012.5
20260903063013 61 159 4.0 9.0 0.00 0.00 0.00 91 1013.0
20260903061514 61 98 4.0 10.0 0.00 0.00 0.00 91 1013.3
20260903060011 61 134 1.0 8.0 0.00 0.00 0.00 91 1014.1
20260903054514 61 134 1.0 6.0 0.00 0.00 0.00 92 1014.2
20260903053009 61 146 1.0 5.0 0.00 0.00 0.00 92 1014.5
20260903051509 61 144 0.0 5.0 0.00 0.00 0.00 92 1014.3
20260903050028 61 120 0.0 7.0 0.00 0.00 0.00 92 1014.2
20260903044507 61 96 3.0 7.0 0.00 0.00 0.00 91 1014.1
20260903043008 61 148 2.0 7.0 0.00 0.00 0.00 91 1014.5
20260903041512 62 107 0.0 4.0 0.00 0.00 0.00 90 1014.5
20260903040004 62 126 0.0 5.0 0.00 0.00 0.00 91 1014.7
20260903034504 62 161 2.0 6.0 0.00 0.00 0.00 90 1014.6
20260903033002 62 123 3.0 6.0 0.00 0.00 0.00 90 1014.9
20260903031502 62 119 0.0 2.0 0.00 0.00 0.00 90 1015.1
20260903030001 62 119 0.0 2.0 0.00 0.00 0.00 90 1015.4
20260903024600 62 116 0.0 5.0 0.00 0.00 0.00 90 1015.3
20260903024502 62 116 0.0 5.0 0.00 0.00 0.00 90 1015.3
20260903023106 62 122 1.0 5.0 0.00 0.00 0.00 89 1015.4
20260903021559 62 126 1.0 5.0 0.00 0.00 0.00 89 1015.7
20260903020106 62 173 1.0 6.0 0.00 0.00 0.00 90 1015.7
20260903014602 62 119 2.0 7.0 0.00 0.01 0.00 90 1015.7
20260903013058 62 128 3.0 7.0 0.00 0.01 0.00 90 1016.0
20260903011603 63 120 4.0 8.0 0.00 0.01 0.00 91 1015.9
20260903010058 63 188 2.0 9.0 0.00 0.01 0.00 91 1015.2
20260903004559 63 126 1.0 8.0 0.00 0.01 0.00 90 1015.1
20260903003055 63 136 2.0 8.0 0.00 0.01 0.00 90 1015.6
20260903001607 64 130 3.0 9.0 0.00 0.01 0.00 89 1015.4
20260903000059 64 123 2.0 8.0 0.00 0.01 0.00 88 1015.6
20260902234553 64 123 4.0 10.0 0.00 0.01 0.00 87 1015.7
20260902233057 65 142 2.0 7.0 0.00 0.01 0.00 87 1016.2
20260902231555 65 106 1.0 6.0 0.00 0.01 0.00 86 1016.7
20260902230052 65 107 0.0 5.0 0.00 0.01 0.00 85 1016.7
20260902224552 65 115 2.0 7.0 0.00 0.02 0.00 84 1016.7
20260902223051 66 195 2.0 7.0 0.00 0.02 0.00 84 1016.7
20260902221609 66 107 1.0 9.0 0.00 0.02 0.00 83 1016.9
20260902220059 66 105 2.0 7.0 0.00 0.02 0.00 81 1016.9
20260902214549 67 64 1.0 6.0 0.00 0.02 0.00 81 1016.9
20260902213053 67 231 3.0 8.0 0.00 0.02 0.00 80 1016.6
20260902211556 68 84 3.0 8.0 0.00 0.02 0.00 78 1016.8
20260902210048 68 126 3.0 9.0 0.00 0.02 0.00 76 1016.8
20260902204607 69 98 4.0 8.0 0.00 0.02 0.00 77 1016.7
20260902203049 70 167 4.0 11.0 0.00 0.02 0.00 76 1016.8
20260902201546 70 195 4.0 11.0 0.00 0.02 0.00 77 1016.8
20260902200044 69 140 3.0 9.0 0.00 0.02 0.00 78 1017.2
20260902194554 69 171 4.0 11.0 0.00 0.02 0.00 78 1017.3
20260902193045 69 102 4.0 10.0 0.00 0.02 0.00 79 1017.4
20260902191552 70 148 3.0 9.0 0.00 0.02 0.00 78 1017.4
20260902190040 69 124 5.0 10.0 0.00 0.02 0.00 80 1017.8
20260902184537 69 153 1.0 5.0 0.00 0.02 0.00 82 1017.8
20260902183048 68 115 3.0 10.0 0.00 0.02 0.00 82 1017.5
20260902181537 68 91 1.0 7.0 0.00 0.02 0.00 82 1017.5
20260902180036 69 140 3.0 7.0 0.00 0.02 0.00 80 1017.8
20260902174535 69 139 3.0 8.0 0.00 0.02 0.00 79 1017.8
20260902173050 69 147 0.0 13.0 0.00 0.02 0.00 81 1017.8
20260902171535 69 164 3.0 11.0 0.00 0.02 0.00 80 1017.5
20260902170033 69 131 3.0 8.0 0.00 0.03 0.00 80 1017.8
20260902164529 68 114 2.0 5.0 0.00 0.03 0.00 83 1017.9
20260902163028 68 157 2.0 9.0 0.00 0.03 0.00 82 1018.2
20260902161530 67 105 3.0 8.0 0.00 0.03 0.00 84 1018.2
20260902160025 67 136 3.0 9.0 0.00 0.03 0.00 84 1018.4
20260902154543 67 139 3.0 8.0 0.00 0.03 0.00 86 1018.8
20260902153020 66 190 3.0 8.0 0.00 0.03 0.00 87 1018.9
20260902151524 66 122 1.0 9.0 0.00 0.03 0.00 88 1018.8
20260902150018 66 74 1.0 5.0 0.00 0.04 0.00 89 1018.8
20260902144514 65 155 1.0 8.0 0.00 0.04 0.00 90 1019.0
20260902143011 65 114 3.0 8.0 0.00 0.04 0.00 92 1018.9
20260902141508 64 148 1.0 8.0 0.00 0.04 0.00 93 1018.6
20260902140009 64 129 3.0 7.0 0.00 0.11 0.00 93 1018.5
20260902134505 63 111 2.0 8.0 0.00 0.11 0.00 94 1018.0
20260902133011 63 130 3.0 7.0 0.00 0.11 0.00 95 1018.0
20260902131612 62 138 0.0 7.0 0.00 0.11 0.00 95 1018.0
20260902124553 61 102 0.0 2.0 0.00 0.31 0.00 96 1018.3
20260902123052 61 102 0.0 6.0 0.00 0.31 0.00 96 1018.2
20260902121551 61 5 0.0 0.0 0.00 0.31 0.00 96 1018.2
20260902120049 60 5 0.0 0.0 0.00 0.31 0.00 96 1018.0
20260902114601 60 5 0.0 0.0 0.00 0.41 0.00 96 1018.4
20260902113040 59 5 0.0 0.0 0.00 0.41 0.00 96 1018.5
20260902111542 59 5 0.0 0.0 0.00 0.41 0.00 96 1018.5
20260902110044 59 5 0.0 0.0 0.00 0.41 0.00 95 1018.1
20260902104540 59 5 0.0 0.0 0.00 0.41 0.00 95 1018.0
20260902103037 60 5 0.0 0.0 0.00 0.41 0.00 95 1017.6
20260902101536 60 5 0.0 0.0 0.00 0.41 0.00 96 1017.4
20260902100033 60 5 0.0 0.0 0.00 0.41 0.00 95 1017.4
20260902094531 60 5 0.0 0.0 0.00 0.41 0.00 96 1017.4
20260902093037 60 5 0.0 0.0 0.00 0.41 0.00 95 1017.2